Mankato, MN

12:42 AM CST on November 13, 2019 (GMT -0600)
Mankato Regional

Weather History for KMKT - September, 2019

Change the Weather History Date:

Wednesday, September 11, 2019

  Actual Average Record
Temperature  
Mean Temperature 66 °F -  
Max Temperature 72 °F 72 °F 96 °F (2012)
Min Temperature 61 °F 53 °F 44 °F (2014)
Cooling Degree Days 2    
Growing Degree Days 16 (Base 50)    
Moisture  
Dew Point 65 °F    
Average Humidity 96    
Maximum Humidity 100    
Minimum Humidity 87    
Precipitation  
Precipitation 0.68 in - - ()
Sea Level Pressure  
Sea Level Pressure 30.00 in    
Wind  
Wind Speed 11 mph ()    
Max Wind Speed 31 mph    
Max Gust Speed 43 mph    
Visibility 8.5 miles    
Events Rain , Thunderstorm    
Averages and records for this station are not official NWS values.
T = Trace of Precipitation, MM = Missing Value Source: Averaged Metar Reports

Daily Weather History Graph

Daily Weather History Graph

Search for Another Location

Airport or City:

Astronomy

Sep. 11, 2019 Rise Set
Actual Time 6:49 AM CDT 7:33 PM CDT
Civil Twilight 6:20 AM CDT 8:03 PM CDT
Nautical Twilight 5:45 AM CDT 8:37 PM CDT
Astronomical Twilight 5:09 AM CDT 9:13 PM CDT
Moon 6:53 PM CDT (9/11) 4:05 AM CDT (9/11)
Length of Visible Light 13h 42m
Length of Day
12h 44m
Waxing Gibbous, 95% of the Moon is Illuminated
Sep 11
Waxing Gibbous
Sep 13
Full
Sep 21
Last Quarter
Sep 28
New
Oct 5
First Quarter

Hourly Weather History & Observations

Time (CDT) Temp. Dew Point Humidity Pressure Visibility Wind Dir Wind Speed Gust Speed Precip Events Conditions
1:31 AM 68.0 °F 64.4 °F 88% 29.99 in 10.0 mi East 12.7 mph - 0.00 in Thunderstorm Mostly Cloudy
1:56 AM 66.9 °F 64.0 °F 90% 29.96 in 10.0 mi East 13.8 mph 19.6 mph 0.00 in Rain , Thunderstorm Light Rain
2:30 AM 66.2 °F 64.4 °F 94% 29.99 in 5.0 mi West 31.1 mph 38.0 mph N/A Rain , Thunderstorm Heavy Thunderstorms and Rain
2:38 AM 64.4 °F 64.4 °F 100% 29.98 in 1.8 mi NNE 18.4 mph 38.0 mph N/A Rain , Thunderstorm Heavy Thunderstorms and Rain
2:42 AM 64.4 °F 64.4 °F 100% 29.97 in 2.0 mi North 21.9 mph 25.3 mph N/A Rain , Thunderstorm Heavy Thunderstorms and Rain
2:49 AM 64.4 °F 64.4 °F 100% 29.95 in 3.0 mi NE 15.0 mph 28.8 mph N/A Rain , Thunderstorm Thunderstorms and Rain
2:56 AM 66.0 °F 64.9 °F 96% 29.94 in 6.0 mi ENE 9.2 mph - N/A Rain , Thunderstorm Heavy Thunderstorms and Rain
3:16 AM 66.2 °F 66.2 °F 100% 29.91 in 2.5 mi East 15.0 mph - 0.21 in Rain , Thunderstorm Thunderstorms and Rain
3:24 AM 66.2 °F 66.2 °F 100% 30.00 in 6.0 mi WSW 28.8 mph 33.4 mph 0.23 in Rain , Thunderstorm Thunderstorms and Rain
3:31 AM 66.2 °F 66.2 °F 100% 30.00 in 2.0 mi WSW 11.5 mph 42.6 mph 0.50 in Rain , Thunderstorm Heavy Thunderstorms and Rain
3:36 AM 66.2 °F 66.2 °F 100% 30.00 in 3.0 mi West 16.1 mph 20.7 mph 0.52 in Rain , Thunderstorm Heavy Thunderstorms and Rain
3:56 AM 64.9 °F 64.9 °F 100% 29.94 in 10.0 mi North 12.7 mph - 0.56 in Rain , Thunderstorm Rain
4:03 AM 64.4 °F 64.4 °F 100% 29.94 in 10.0 mi NNE 18.4 mph 21.9 mph 0.02 in Rain , Thunderstorm Rain
4:20 AM 64.4 °F 64.4 °F 100% 29.98 in 10.0 mi NE 6.9 mph - 0.06 in Rain , Thunderstorm Rain
4:41 AM 66.2 °F 66.2 °F 100% 30.00 in 3.0 mi ESE 6.9 mph - 0.14 in Rain Heavy Rain
5:10 AM 64.4 °F 64.4 °F 100% 29.96 in 10.0 mi ENE 11.5 mph - 0.04 in Rain , Thunderstorm Thunderstorms and Rain
5:25 AM 64.4 °F 64.4 °F 100% 29.95 in 8.0 mi East 13.8 mph - 0.08 in Rain Rain
5:29 AM 64.4 °F 64.4 °F 100% 29.95 in 7.0 mi East 13.8 mph - 0.09 in Rain Rain
5:56 AM 64.9 °F 64.9 °F 100% 29.92 in 10.0 mi East 15.0 mph - 0.10 in Rain Light Rain
6:17 AM 64.4 °F 64.4 °F 100% 29.93 in 10.0 mi ESE 13.8 mph - 0.00 in   Overcast
6:56 AM 64.9 °F 64.9 °F 100% 29.94 in 10.0 mi SE 11.5 mph - 0.00 in   Mostly Cloudy
7:06 AM 64.4 °F 64.4 °F 100% 29.95 in 10.0 mi East 8.1 mph - N/A   Mostly Cloudy
7:21 AM 66.2 °F 64.4 °F 94% 29.96 in 10.0 mi ENE 3.5 mph - N/A   Mostly Cloudy
7:35 AM 66.2 °F 64.4 °F 94% 29.96 in 10.0 mi ENE 5.8 mph - N/A   Overcast
7:52 AM 66.2 °F 64.4 °F 94% 29.99 in 10.0 mi Calm Calm - N/A   Overcast
7:56 AM 66.9 °F 64.9 °F 93% 29.97 in 10.0 mi NE 3.5 mph - N/A   Overcast
8:17 AM 66.2 °F 66.2 °F 100% 29.98 in 10.0 mi Calm Calm - N/A   Overcast
8:56 AM 66.0 °F 66.0 °F 100% 29.97 in 10.0 mi East 5.8 mph - N/A   Overcast
9:04 AM 66.2 °F 66.2 °F 100% 29.97 in 10.0 mi East 5.8 mph - N/A   Overcast
9:44 AM 66.2 °F 66.2 °F 100% 29.99 in 10.0 mi ESE 4.6 mph - N/A   Overcast
9:54 AM 66.2 °F 66.2 °F 100% 30.00 in 10.0 mi ESE 8.1 mph - N/A   Mostly Cloudy
9:56 AM 66.9 °F 66.9 °F 100% 29.99 in 10.0 mi SE 6.9 mph - N/A   Mostly Cloudy
10:03 AM 68.0 °F 66.2 °F 94% 30.00 in 10.0 mi SE 6.9 mph - N/A   Scattered Clouds
10:44 AM 69.8 °F 66.2 °F 88% 30.01 in 10.0 mi South 6.9 mph - N/A   Mostly Cloudy
10:56 AM 69.1 °F 66.9 °F 93% 30.01 in 10.0 mi SSW 5.8 mph - N/A   Overcast
11:07 AM 69.8 °F 66.2 °F 88% 30.02 in 10.0 mi SSW 6.9 mph - N/A   Overcast
11:15 AM 69.8 °F 66.2 °F 88% 30.01 in 10.0 mi SSW 3.5 mph - N/A   Overcast
11:56 AM 70.0 °F 66.0 °F 87% 30.00 in 10.0 mi SW 6.9 mph - N/A   Overcast
12:56 PM 70.0 °F 66.0 °F 87% 30.00 in 10.0 mi SSW 4.6 mph - N/A   Overcast
1:56 PM 71.1 °F 66.9 °F 87% 30.01 in 10.0 mi WSW 4.6 mph - N/A   Overcast
3:22 PM 68.0 °F 64.4 °F 88% 30.04 in 10.0 mi North 10.4 mph - N/A   Overcast
3:36 PM 68.0 °F 64.4 °F 88% 30.04 in 10.0 mi NNE 9.2 mph - N/A   Overcast
3:46 PM 68.0 °F 64.4 °F 88% 30.04 in 10.0 mi NNE 10.4 mph - N/A   Overcast
3:53 PM 68.0 °F 64.4 °F 88% 30.04 in 10.0 mi North 8.1 mph - N/A   Overcast
3:56 PM 68.0 °F 64.9 °F 90% 30.04 in 10.0 mi North 8.1 mph - N/A   Overcast
4:12 PM 69.8 °F 66.2 °F 88% 30.04 in 10.0 mi NNE 9.2 mph - N/A   Overcast
4:56 PM 68.0 °F 66.0 °F 93% 30.04 in 10.0 mi NNE 9.2 mph - N/A   Overcast
5:38 PM 66.2 °F 64.4 °F 94% 30.04 in 10.0 mi NNE 13.8 mph - N/A   Overcast
6:41 PM 64.4 °F 64.4 °F 100% 30.05 in 6.0 mi NE 11.5 mph - N/A   Overcast
6:56 PM 64.9 °F 64.0 °F 97% 30.05 in 7.0 mi NE 11.5 mph - N/A   Overcast
7:41 PM 64.4 °F 64.4 °F 100% 30.05 in 9.0 mi NNE 10.4 mph - N/A   Overcast
7:56 PM 64.9 °F 64.0 °F 97% 30.04 in 10.0 mi NE 15.0 mph - N/A   Overcast
8:56 PM 64.0 °F 64.0 °F 100% 30.06 in 10.0 mi NE 11.5 mph 18.4 mph N/A   Overcast
9:56 PM 63.0 °F 63.0 °F 100% 30.07 in 10.0 mi NE 10.4 mph - 0.02 in Rain Light Rain
10:38 PM 62.6 °F 62.6 °F 100% 30.05 in 10.0 mi ENE 16.1 mph 20.7 mph 0.00 in   Overcast
10:56 PM 62.1 °F 62.1 °F 100% 30.04 in 6.0 mi ENE 17.3 mph 21.9 mph 0.00 in   Overcast
11:56 PM 61.0 °F 61.0 °F 100% 30.01 in 10.0 mi ENE 16.1 mph 24.2 mph N/A   Overcast